Location: Caserta
(41.0670°N, 14.3330°E)
Time: 09:57:46
(UTC+01:00)

ISS - Visible Passes

Search period start: 22 January 2019 00:00
Search period end: 01 February 2019 00:00
Orbit: 404 x 410 km, 51.6° (Epoch: 23 January)

Date Brightness Start Highest point End Pass type
(mag) Time Alt. Az. Time Alt. Az. Time Alt. Az.
22 Jan -1.9 17:53:13 10° S 17:55:29 17° SE 17:57:16 12° E visible
22 Jan -1.4 19:28:31 10° WSW 19:30:01 24° W 19:30:01 24° W visible
23 Jan -3.9 18:37:06 10° SW 18:40:23 85° SE 18:41:04 53° ENE visible
24 Jan -3.2 17:45:57 10° SSW 17:49:05 43° SE 17:52:02 11° ENE visible
24 Jan -1.6 19:22:50 10° W 19:24:46 23° NW 19:24:46 23° NW visible
25 Jan -2.9 18:31:05 10° WSW 18:34:15 42° NNW 18:35:40 26° NNE visible
26 Jan -3.6 17:39:31 10° WSW 17:42:48 73° NW 17:46:07 10° NE visible
26 Jan -1.4 19:17:25 10° WNW 19:19:13 17° NNW 19:19:13 17° NNW visible
27 Jan -2.0 18:25:27 10° WNW 18:28:12 23° NNW 18:29:59 16° NNE visible
28 Jan -1.2 19:12:03 10° NW 19:13:25 14° NNW 19:13:25 14° NNW visible
29 Jan -1.5 18:20:01 10° NW 18:22:13 16° NNW 18:24:07 11° NNE visible
30 Jan -1.2 19:06:21 10° NNW 19:07:29 13° N 19:07:29 13° N visible
31 Jan -1.4 18:14:31 10° NW 18:16:17 14° N 18:18:03 10° NNE visible
